When you browse on this site, cookies collect data to enhance your experience and personalize the content and advertising you see.
Visit our Privacy Policy to learn more. By continuing to use the site, you agree to this use of cookies and data.
  • In Österreich
  • Länderverzeichnis
  • Für 7 Tage
  • Wassertemperatur
  • Satellitenkarten
  • Wetterkarte
  • News
  • Widgets
  • user-avatar
    Anmelden

    Stündliche Wetter Buenos Aires

    Heute, 12 Dezember, Mittwoch

    Zeit Temperatur Niederschläge Wind Luftdruck Luftfeuchtigkeit
    00:00 +24°C° 0 mm 3 m/S 757 mmHg 89%
    01:00 +22°C° 0 mm 3 m/S 757 mmHg 89%
    02:00 +22°C° 0 mm 4 m/S 757 mmHg 89%
    03:00 +22°C° 0 mm 4 m/S 757 mmHg 88%
    04:00 +21°C° 0 mm 4 m/S 757 mmHg 88%
    05:00 +21°C° 0 mm 4 m/S 757 mmHg 87%
    06:00 +23°C° 0 mm 4 m/S 758 mmHg 77%
    07:00 +26°C° 0 mm 4 m/S 758 mmHg 68%
    08:00 +27°C° 0 mm 3 m/S 759 mmHg 58%
    09:00 +29°C° 0 mm 3 m/S 759 mmHg 49%
    10:00 +30°C° 0 mm 3 m/S 759 mmHg 41%
    11:00 +33°C° 0 mm 3 m/S 759 mmHg 32%
    12:00 +33°C° 0 mm 3 m/S 759 mmHg 31%
    13:00 +34°C° 0 mm 3 m/S 759 mmHg 30%
    14:00 +34°C° 0 mm 4 m/S 759 mmHg 29%
    15:00 +33°C° 0 mm 4 m/S 758 mmHg 31%
    16:00 +32°C° 0 mm 4 m/S 758 mmHg 34%
    17:00 +30°C° 0 mm 5 m/S 758 mmHg 36%
    18:00 +28°C° 0 mm 5 m/S 758 mmHg 42%
    19:00 +26°C° 0 mm 5 m/S 758 mmHg 48%
    20:00 +23°C° 0 mm 6 m/S 759 mmHg 54%
    21:00 +23°C° 0 mm 6 m/S 759 mmHg 55%
    22:00 +22°C° 0 mm 6 m/S 759 mmHg 57%
    23:00 +21°C° 0 mm 6 m/S 759 mmHg 59%

    Morgen, 13 Dezember, Donnerstag

    Zeit Temperatur Niederschläge Wind Luftdruck Luftfeuchtigkeit
    00:00 +21°C° 0 mm 6 m/S 759 mmHg 58%
    01:00 +21°C° 0 mm 6 m/S 759 mmHg 58%
    02:00 +20°C° 0 mm 6 m/S 759 mmHg 57%
    03:00 +20°C° 0 mm 6 m/S 758 mmHg 56%
    04:00 +20°C° 0 mm 6 m/S 758 mmHg 54%
    05:00 +20°C° 0 mm 6 m/S 758 mmHg 52%
    06:00 +21°C° 0 mm 7 m/S 758 mmHg 50%
    07:00 +23°C° 0 mm 7 m/S 758 mmHg 48%
    08:00 +24°C° 0 mm 8 m/S 758 mmHg 46%
    09:00 +24°C° 0.2 mm 7 m/S 758 mmHg 50%
    10:00 +24°C° 0.2 mm 7 m/S 758 mmHg 55%
    11:00 +24°C° 0.2 mm 7 m/S 758 mmHg 59%
    12:00 +24°C° 2.1 mm 7 m/S 757 mmHg 65%
    13:00 +23°C° 2.1 mm 8 m/S 756 mmHg 70%
    14:00 +23°C° 2.1 mm 8 m/S 755 mmHg 76%
    15:00 +23°C° 0.5 mm 8 m/S 754 mmHg 78%
    16:00 +23°C° 0.5 mm 8 m/S 753 mmHg 79%
    17:00 +24°C° 0.5 mm 8 m/S 753 mmHg 81%
    18:00 +23°C° 0.1 mm 8 m/S 753 mmHg 82%
    19:00 +23°C° 0.1 mm 7 m/S 752 mmHg 83%
    20:00 +23°C° 0.1 mm 7 m/S 752 mmHg 85%
    21:00 +23°C° 0.5 mm 6 m/S 752 mmHg 85%
    22:00 +22°C° 0.5 mm 6 m/S 751 mmHg 86%
    23:00 +22°C° 0.5 mm 5 m/S 751 mmHg 87%

    übermorgen, 14 Dezember, Freitag

    Zeit Temperatur Niederschläge Wind Luftdruck Luftfeuchtigkeit
    00:00 +22°C° 0.4 mm 6 m/S 750 mmHg 87%
    01:00 +22°C° 0.4 mm 7 m/S 750 mmHg 88%
    02:00 +22°C° 0.4 mm 7 m/S 749 mmHg 88%
    03:00 +22°C° 4.9 mm 7 m/S 749 mmHg 90%
    04:00 +22°C° 4.9 mm 7 m/S 750 mmHg 91%
    05:00 +22°C° 4.9 mm 6 m/S 750 mmHg 92%
    06:00 +23°C° 0.7 mm 5 m/S 750 mmHg 91%
    07:00 +23°C° 0.7 mm 5 m/S 751 mmHg 90%
    08:00 +25°C° 0.7 mm 4 m/S 751 mmHg 89%
    09:00 +26°C° 0.1 mm 4 m/S 752 mmHg 80%
    10:00 +28°C° 0.1 mm 4 m/S 752 mmHg 71%
    11:00 +30°C° 0.1 mm 4 m/S 752 mmHg 62%
    12:00 +32°C° 0 mm 5 m/S 752 mmHg 54%
    13:00 +32°C° 0 mm 5 m/S 752 mmHg 46%
    14:00 +33°C° 0 mm 6 m/S 752 mmHg 37%
    15:00 +32°C° 0 mm 6 m/S 753 mmHg 37%
    16:00 +30°C° 0 mm 6 m/S 754 mmHg 36%
    17:00 +29°C° 0 mm 6 m/S 754 mmHg 36%
    18:00 +28°C° 0 mm 6 m/S 755 mmHg 38%
    19:00 +26°C° 0 mm 5 m/S 756 mmHg 40%
    20:00 +23°C° 0 mm 5 m/S 757 mmHg 42%
    21:00 +22°C° 0 mm 5 m/S 757 mmHg 41%
    22:00 +21°C° 0 mm 5 m/S 758 mmHg 39%
    23:00 +20°C° 0 mm 5 m/S 758 mmHg 38%

    15 Dezember, Samstag

    Zeit Temperatur Niederschläge Wind Luftdruck Luftfeuchtigkeit
    00:00 +20°C° 0 mm 5 m/S 758 mmHg 39%
    01:00 +19°C° 0 mm 5 m/S 758 mmHg 41%
    02:00 +19°C° 0 mm 5 m/S 758 mmHg 43%
    03:00 +17°C° 0 mm 5 m/S 758 mmHg 48%
    04:00 +17°C° 0 mm 4 m/S 759 mmHg 54%
    05:00 +17°C° 0 mm 4 m/S 760 mmHg 60%
    06:00 +18°C° 0 mm 3 m/S 761 mmHg 56%
    07:00 +20°C° 0 mm 3 m/S 761 mmHg 52%
    08:00 +22°C° 0 mm 3 m/S 762 mmHg 49%
    09:00 +25°C° 0 mm 2 m/S 761 mmHg 42%
    10:00 +27°C° 0 mm 2 m/S 761 mmHg 35%
    11:00 +29°C° 0 mm 2 m/S 761 mmHg 28%
    12:00 +29°C° 0 mm 2 m/S 760 mmHg 26%
    13:00 +30°C° 0 mm 2 m/S 760 mmHg 25%
    14:00 +31°C° 0 mm 2 m/S 760 mmHg 24%
    15:00 +31°C° 0 mm 2 m/S 760 mmHg 25%
    16:00 +30°C° 0 mm 2 m/S 759 mmHg 27%
    17:00 +30°C° 0 mm 2 m/S 759 mmHg 29%
    18:00 +28°C° 0 mm 2 m/S 759 mmHg 33%
    19:00 +26°C° 0 mm 2 m/S 759 mmHg 37%
    20:00 +24°C° 0 mm 1 m/S 759 mmHg 41%
    21:00 +23°C° 0 mm 2 m/S 759 mmHg 42%
    22:00 +23°C° 0 mm 2 m/S 759 mmHg 44%
    23:00 +21°C° 0 mm 2 m/S 759 mmHg 45%

    16 Dezember, Sonntag

    Zeit Temperatur Niederschläge Wind Luftdruck Luftfeuchtigkeit
    00:00 +21°C° 0 mm 3 m/S 759 mmHg 47%
    01:00 +21°C° 0 mm 3 m/S 759 mmHg 49%
    02:00 +20°C° 0 mm 4 m/S 759 mmHg 51%
    03:00 +20°C° 0 mm 4 m/S 760 mmHg 55%
    04:00 +19°C° 0 mm 4 m/S 760 mmHg 60%
    05:00 +19°C° 0 mm 4 m/S 760 mmHg 65%
    06:00 +21°C° 0 mm 4 m/S 760 mmHg 62%
    07:00 +23°C° 0 mm 4 m/S 760 mmHg 59%
    08:00 +25°C° 0 mm 4 m/S 760 mmHg 56%
    09:00 +27°C° 0 mm 5 m/S 759 mmHg 50%
    10:00 +29°C° 0 mm 5 m/S 759 mmHg 44%
    11:00 +32°C° 0 mm 5 m/S 758 mmHg 37%
    12:00 +33°C° 0 mm 5 m/S 758 mmHg 35%
    13:00 +34°C° 0 mm 5 m/S 757 mmHg 32%
    14:00 +35°C° 0 mm 5 m/S 757 mmHg 30%
    15:00 +35°C° 0 mm 5 m/S 756 mmHg 31%
    16:00 +35°C° 0 mm 5 m/S 756 mmHg 33%
    17:00 +35°C° 0 mm 4 m/S 755 mmHg 34%
    18:00 +33°C° 0 mm 4 m/S 756 mmHg 41%
    19:00 +30°C° 0 mm 3 m/S 756 mmHg 47%
    20:00 +28°C° 0 mm 3 m/S 756 mmHg 54%
    21:00 +27°C° 0 mm 3 m/S 757 mmHg 57%
    22:00 +27°C° 0 mm 3 m/S 757 mmHg 59%
    23:00 +26°C° 0 mm 3 m/S 758 mmHg 61%

    17 Dezember, Montag

    Zeit Temperatur Niederschläge Wind Luftdruck Luftfeuchtigkeit
    00:00 +25°C° 0 mm 4 m/S 758 mmHg 59%
    01:00 +22°C° 0 mm 5 m/S 758 mmHg 57%
    02:00 +21°C° 0 mm 7 m/S 758 mmHg 55%
    03:00 +20°C° 0 mm 6 m/S 759 mmHg 56%
    04:00 +20°C° 0 mm 6 m/S 760 mmHg 57%
    05:00 +19°C° 0 mm 6 m/S 760 mmHg 57%
    06:00 +20°C° 0 mm 6 m/S 761 mmHg 53%
    07:00 +21°C° 0 mm 5 m/S 762 mmHg 49%
    08:00 +22°C° 0 mm 5 m/S 762 mmHg 45%
    09:00 +25°C° 0 mm 5 m/S 762 mmHg 41%
    10:00 +26°C° 0 mm 5 m/S 762 mmHg 36%
    11:00 +27°C° 0 mm 5 m/S 762 mmHg 32%
    12:00 +28°C° 0 mm 5 m/S 761 mmHg 31%
    13:00 +28°C° 0 mm 5 m/S 760 mmHg 31%
    14:00 +29°C° 0 mm 5 m/S 760 mmHg 31%
    15:00 +28°C° 0 mm 5 m/S 759 mmHg 35%
    16:00 +27°C° 0 mm 5 m/S 759 mmHg 39%
    17:00 +26°C° 0 mm 6 m/S 759 mmHg 43%
    18:00 +25°C° 0 mm 5 m/S 759 mmHg 47%
    19:00 +22°C° 0 mm 5 m/S 759 mmHg 51%
    20:00 +21°C° 0 mm 5 m/S 759 mmHg 55%
    21:00 +20°C° 0 mm 5 m/S 758 mmHg 57%
    22:00 +20°C° 0 mm 5 m/S 758 mmHg 60%
    23:00 +20°C° 0 mm 5 m/S 758 mmHg 62%
    Mehr zeigen